Location: Aufkirchen
(47.9603°N, 11.3653°E)
Time: 13:58:06
(UTC+01:00)

Transit 2A Rocket - Pass Details

Date: 05 December 2020
Orbit: 592 x 910 km, 66.7° (Epoch: 21 January)

Event Time Altitude Azimuth Distance (km) Brightness Sun altitude
Rises 08:53:17 0° 326° (NW) 3,153 7.5 7.5°
Reaches altitude 10° 08:55:46 10° 328° (NNW) 2,176 6.8 7.8°
Maximum altitude 09:00:39 71° 52° (NE) 699 5.0 8.4°
Drops below altitude 10° 09:05:08 10° 138° (SE) 1,993 11.7 8.9°
Sets 09:07:19 0° 140° (SE) 2,866 10.5 9.1°
